Weather History for KUKI - September, 2013

Change the Weather History Date:

Tuesday, September 17, 2013

  Actual Average Record
Temperature  
Mean Temperature 67 °F 68 °F  
Max Temperature 75 °F 87 °F 104 °F (1913)
Min Temperature 58 °F 49 °F 38 °F (1910)
Degree Days  
Heating Degree Days 0 1  
Month to date heating degree days 7  
Since 1 July heating degree days 10  
Cooling Degree Days 1 4  
Month to date cooling degree days 89  
Year to date cooling degree days 772  
Growing Degree Days 16 (Base 50)    
Moisture  
Dew Point 49 °F    
Average Humidity 58    
Maximum Humidity 75    
Minimum Humidity 41    
Precipitation  
Precipitation 0.00 in 0.02 in 1.03 in (1986)
Month to date precipitation 0.00 0.23  
Year to date precipitation 5.61 23.75  
Since 1 July precipitation 0.03 0.37  
Snow  
Snow 0.00 in - - ()
Month to date snowfall 0.0  
Since 1 July snowfall 0.0  
Since 1 September snowfall 0.0  
Snow Depth -    
Sea Level Pressure  
Sea Level Pressure 29.86 in    
Wind  
Wind Speed 11 mph (NNW)    
Max Wind Speed 22 mph    
Max Gust Speed 32 mph    
Visibility 10 miles    
Events      
T = Trace of Precipitation, MM = Missing Value Source: NWS Daily Summary

Daily Weather History Graph

Daily Weather History Graph

Search for Another Location

Airport or City:

Trip Planner

Search our weather history database for the weather conditions in past years. The results will help you decide how hot, cold, wet, or windy it might be!

Date:

Astronomy

Sep. 17, 2013 Rise Set
Actual Time 6:56 AM PDT 7:17 PM PDT
Civil Twilight 6:29 AM PDT 7:44 PM PDT
Nautical Twilight 5:58 AM PDT 8:15 PM PDT
Astronomical Twilight 5:25 AM PDT 8:47 PM PDT
Moon 6:07 PM PDT (9/17) 4:57 AM PDT (9/17)
Length of Visible Light 13h 14m
Length of Day
12h 21m
Waxing Gibbous, 96% of the Moon is Illuminated
Sep 17
Waxing Gibbous
Sep 19
Full
Sep 26
Last Quarter
Oct 4
New
Oct 11
First Quarter

Hourly Weather History & Observations

Time (PDT) Temp. Dew Point Humidity Pressure Visibility Wind Dir Wind Speed Gust Speed Precip Events Conditions
12:56 AM 63.0 °F 52.0 °F 67% 29.81 in 10.0 mi NNE 8.1 mph - N/A   Clear
1:56 AM 62.1 °F 51.1 °F 67% 29.81 in 10.0 mi Variable 4.6 mph - N/A   Clear
2:56 AM 60.1 °F 51.1 °F 72% 29.81 in 10.0 mi North 8.1 mph - N/A   Clear
3:56 AM 59.0 °F 51.1 °F 75% 29.82 in 10.0 mi NE 5.8 mph - N/A   Clear
4:56 AM 60.1 °F 50.0 °F 69% 29.82 in 10.0 mi North 6.9 mph - N/A   Clear
5:56 AM 60.1 °F 48.9 °F 67% 29.83 in 10.0 mi NW 11.5 mph 23.0 mph N/A   Clear
6:56 AM 60.1 °F 50.0 °F 69% 29.84 in 10.0 mi NNW 11.5 mph 19.6 mph N/A   Clear
7:56 AM 61.0 °F 51.1 °F 70% 29.86 in 10.0 mi North 8.1 mph - N/A   Clear
8:56 AM 64.9 °F 51.1 °F 61% 29.85 in 10.0 mi NNW 11.5 mph 19.6 mph N/A   Clear
9:56 AM 68.0 °F 50.0 °F 52% 29.86 in 10.0 mi NW 11.5 mph 19.6 mph N/A   Clear
10:56 AM 69.1 °F 48.9 °F 49% 29.86 in 10.0 mi NW 12.7 mph 20.7 mph N/A   Clear
11:56 AM 73.0 °F 48.0 °F 41% 29.86 in 10.0 mi NW 15.0 mph 23.0 mph N/A   Partly Cloudy
12:56 PM 73.0 °F 50.0 °F 44% 29.86 in 10.0 mi WNW 17.3 mph 24.2 mph N/A   Clear
1:56 PM 73.9 °F 50.0 °F 43% 29.86 in 10.0 mi WNW 15.0 mph 23.0 mph N/A   Clear
2:56 PM 73.9 °F 51.1 °F 45% 29.85 in 10.0 mi WNW 16.1 mph 26.5 mph N/A   Clear
3:56 PM 73.0 °F 51.1 °F 46% 29.86 in 10.0 mi WNW 15.0 mph 25.3 mph N/A   Clear
4:56 PM 73.0 °F 48.9 °F 42% 29.86 in 10.0 mi WNW 16.1 mph 24.2 mph N/A   Clear
5:56 PM 70.0 °F 46.9 °F 44% 29.87 in 10.0 mi WNW 12.7 mph 25.3 mph N/A   Clear
6:56 PM 66.9 °F 46.9 °F 49% 29.87 in 10.0 mi NW 16.1 mph - N/A   Clear
7:56 PM 64.9 °F 46.9 °F 52% 29.89 in 10.0 mi NNW 9.2 mph - N/A   Clear
8:56 PM 64.9 °F 46.0 °F 50% 29.91 in 10.0 mi North 6.9 mph - N/A   Clear
9:56 PM 61.0 °F 46.9 °F 60% 29.92 in 10.0 mi NNE 6.9 mph - N/A   Clear
10:56 PM 60.1 °F 46.9 °F 62% 29.93 in 10.0 mi NE 5.8 mph - N/A   Clear
11:56 PM 57.0 °F 46.0 °F 67% 29.94 in 10.0 mi Calm Calm - N/A   Clear